Date String (YYYY-MM-DD hh:mm:ss) UTC,Instrument flags,absolute air pressure of the measurement (hPa),sample flow rate (lpm),inlet stack bypass flow (lpm),air temperature of the measurement (°C),ambient temperature measured by the external sensor (°C),aerosol sample conditioner tube jacket temperature (°C),OPC LED temperature (°C),internal box temperature (°C),relative humidity of the measurement (%),span deviation,mass concentration of particles derived from Lorenz-Mie calculation of OPC scattering (μg/m³),mass concentration of particles derived from Lorenz-Mie calculation of OPC scattering (μg/m³),mass concentration of particles derived from Lorenz-Mie calculation of OPC scattering (μg/m³)
DateTimeUTC,F1_M11,P_M11,Q1_M11,Q2_M11,T1_M11,T2_M11,T3_M11,T4_M11,T5_M11,U1_M11,ZSPAN_M11,X0_M11,X2_M11,X1_M11
2023-11-01 04:00:00,SystemResetWarning,0834.3,5.00,000.00,024.3,023.0,000.0,032.7,025.6,10.7,0003.0,0012.70,0008.41,0007.87
2023-11-01 04:01:00,SystemResetWarning,0834.4,5.00,000.00,024.2,022.9,000.0,032.7,025.6,10.7,0003.0,0012.58,0008.43,0007.89
2023-11-01 04:02:00,SystemResetWarning,0834.3,5.00,000.00,024.2,023.0,000.0,032.7,025.6,10.7,0003.2,0012.77,0008.45,0007.91
2023-11-01 04:03:00,SystemResetWarning,0834.5,5.00,000.00,024.2,023.0,000.0,032.7,025.6,10.7,0003.3,0012.81,0008.47,0007.92
2023-11-01 04:04:00,SystemResetWarning,0834.3,5.00,000.00,024.2,023.0,000.0,032.7,025.6,10.7,0002.8,0012.74,0008.50,0007.94
2023-11-01 04:05:00,SystemResetWarning,0834.7,5.00,000.00,024.2,023.0,000.0,032.7,025.6,10.7,0003.5,0012.61,0008.54,0007.98
2023-11-01 04:06:00,SystemResetWarning,0834.5,5.00,000.00,024.2,023.0,000.0,032.7,025.6,10.7,0004.7,0012.74,0008.65,0008.06
2023-11-01 04:07:00,SystemResetWarning,0834.4,5.00,000.00,024.2,023.0,000.0,032.7,025.5,10.7,0004.8,0012.91,0008.70,0008.12
2023-11-01 04:08:00,SystemResetWarning,0834.6,5.00,000.00,024.2,023.0,000.0,032.7,025.5,10.7,0005.5,0013.13,0008.77,0008.19
2023-11-01 04:09:00,SystemResetWarning,0834.4,5.00,000.00,024.2,023.0,000.0,032.7,025.6,10.6,0005.6,0013.43,0008.80,0008.23
2023-11-01 04:10:00,SystemResetWarning,0834.3,5.01,000.00,024.2,023.0,000.0,032.7,025.6,10.5,0005.8,0013.87,0008.84,0008.27
2023-11-01 04:11:00,SystemResetWarning,0834.5,5.00,000.00,024.2,023.0,000.0,032.7,025.6,10.4,0005.6,0014.54,0008.86,0008.30
2023-11-01 04:12:00,SystemResetWarning,0834.4,5.00,000.00,024.2,023.0,000.0,032.7,025.6,10.5,0005.6,0014.64,0008.89,0008.34
2023-11-01 04:13:00,SystemResetWarning,0834.5,4.99,000.00,024.2,023.1,000.0,032.7,025.6,10.4,0005.7,0014.72,0008.93,0008.35
2023-11-01 04:14:00,SystemResetWarning,0834.3,4.99,000.00,024.2,023.1,000.0,032.7,025.6,10.5,0005.4,0014.91,0008.98,0008.37
2023-11-01 04:15:00,SystemResetWarning,0834.3,5.00,000.00,024.2,023.1,000.0,032.7,025.6,10.7,0005.4,0014.90,0009.01,0008.39
2023-11-01 04:16:00,SystemResetWarning,0834.4,5.00,000.00,024.2,023.1,000.0,032.7,025.6,10.8,0005.4,0014.80,0009.01,0008.40
2023-11-01 04:17:00,SystemResetWarning,0834.4,5.01,000.00,024.2,023.2,000.0,032.6,025.6,10.7,0005.0,0015.42,0009.03,0008.43
2023-11-01 04:18:00,SystemResetWarning,0834.5,5.00,000.00,024.2,023.2,000.0,032.7,025.7,10.6,0004.9,0015.76,0009.06,0008.45
2023-11-01 04:19:00,SystemResetWarning,0834.4,5.00,000.00,024.2,023.2,000.0,032.7,025.7,10.5,0004.3,0015.85,0009.09,0008.47
2023-11-01 04:20:00,SystemResetWarning,0834.5,5.00,000.00,024.2,023.2,000.0,032.6,025.7,10.5,0004.6,0015.95,0009.14,0008.50
2023-11-01 04:21:00,SystemResetWarning,0834.3,5.00,000.00,024.2,023.2,000.0,032.7,025.7,10.6,0004.6,0015.82,0009.22,0008.57
2023-11-01 04:22:00,SystemResetWarning,0834.3,5.01,000.00,024.2,023.2,000.0,032.6,025.7,10.6,0004.8,0015.01,0009.29,0008.62
2023-11-01 04:23:00,SystemResetWarning,0834.3,5.00,000.00,024.2,023.2,000.0,032.6,025.6,10.7,0004.8,0015.25,0009.35,0008.67
2023-11-01 04:24:00,SystemResetWarning,0834.3,5.00,000.00,024.2,023.2,000.0,032.6,025.6,10.7,0004.2,0015.23,0009.40,0008.71
2023-11-01 04:25:00,SystemResetWarning,0834.4,5.00,000.00,024.2,023.2,000.0,032.7,025.6,10.7,0004.1,0015.09,0009.41,0008.75
2023-11-01 04:26:00,SystemResetWarning,0834.4,5.00,000.00,024.2,023.2,000.0,032.7,025.7,10.7,0003.9,0015.48,0009.44,0008.78
2023-11-01 04:27:00,SystemResetWarning,0834.4,4.99,000.00,024.2,023.2,000.0,032.6,025.7,10.7,0003.1,0015.70,0009.41,0008.75
2023-11-01 04:28:00,SystemResetWarning,0834.4,5.01,000.00,024.2,023.2,000.0,032.6,025.7,10.7,0003.0,0015.53,0009.37,0008.70
2023-11-01 04:29:00,SystemResetWarning,0834.3,5.01,000.00,024.2,023.2,000.0,032.6,025.7,10.2,0003.3,0014.68,0009.30,0008.66
2023-11-01 04:30:00,SystemResetWarning,0834.3,5.01,000.00,024.2,023.2,000.0,032.7,025.7,10.1,0004.4,0014.33,0009.25,0008.62
2023-11-01 04:31:00,SystemResetWarning,0834.4,5.00,000.00,024.2,023.2,000.0,032.6,025.7,10.1,0004.3,0014.34,0009.24,0008.59
2023-11-01 04:32:00,SystemResetWarning,0834.4,4.99,000.00,024.2,023.3,000.0,032.6,025.7,10.0,0004.7,0014.40,0009.25,0008.58
2023-11-01 04:33:00,SystemResetWarning,0834.4,4.99,000.00,024.2,023.3,000.0,032.7,025.7,10.0,0004.4,0014.29,0009.22,0008.54
2023-11-01 04:34:00,SystemResetWarning,0834.4,5.00,000.00,024.3,023.3,000.0,032.7,025.7,10.0,0004.2,0013.89,0009.18,0008.50
2023-11-01 04:35:00,SystemResetWarning,0834.4,5.00,000.00,024.2,023.2,000.0,032.7,025.6,10.0,0004.5,0013.74,0009.16,0008.47
2023-11-01 04:36:00,SystemResetWarning,0834.4,5.00,000.00,024.2,023.2,000.0,032.7,025.7,10.1,0004.6,0013.74,0009.17,0008.48
2023-11-01 04:37:00,SystemResetWarning,0834.4,5.00,000.00,024.3,023.2,000.0,032.7,025.7,10.6,0005.2,0013.39,0009.20,0008.50
2023-11-01 04:38:00,SystemResetWarning,0834.4,5.00,000.00,024.3,023.2,000.0,032.7,025.7,10.6,0005.3,0013.83,0009.27,0008.55
2023-11-01 04:39:00,SystemResetWarning,0834.3,5.00,000.00,024.3,023.2,000.0,032.7,025.7,10.6,0005.4,0014.19,0009.31,0008.58
2023-11-01 04:40:00,SystemResetWarning,0834.4,5.00,000.00,024.2,023.2,000.0,032.7,025.7,10.7,0005.5,0014.24,0009.32,0008.63
2023-11-01 04:41:00,SystemResetWarning,0834.4,5.00,000.00,024.3,023.2,000.0,032.7,025.6,10.7,0005.4,0014.30,0009.36,0008.67
2023-11-01 04:42:00,SystemResetWarning,0834.4,5.00,000.00,024.2,023.2,000.0,032.7,025.6,10.4,0005.3,0014.13,0009.36,0008.69
2023-11-01 04:43:00,SystemResetWarning,0834.3,5.00,000.00,024.3,023.2,000.0,032.7,025.6,10.2,0005.1,0013.98,0009.33,0008.69
2023-11-01 04:44:00,SystemResetWarning,0834.3,5.01,000.00,024.3,023.3,000.0,032.7,025.7,10.5,0004.6,0014.08,0009.35,0008.68
2023-11-01 04:45:00,SystemResetWarning,0834.3,5.00,000.00,024.2,023.3,000.0,032.7,025.7,10.7,0003.8,0014.05,0009.24,0008.57
2023-11-01 04:46:00,SystemResetWarning,0834.3,4.99,000.00,024.2,023.3,000.0,032.7,025.6,10.3,0004.0,0013.86,0009.12,0008.50
2023-11-01 04:47:00,SystemResetWarning,0834.3,5.00,000.00,024.3,023.3,000.0,032.7,025.7,10.5,0003.8,0013.49,0008.82,0008.25
2023-11-01 04:48:00,SystemResetWarning,0834.3,5.00,000.00,024.3,023.3,000.0,032.7,025.7,10.6,0003.8,0013.19,0008.63,0008.10
2023-11-01 04:49:00,SystemResetWarning,0834.3,4.99,000.00,024.3,023.3,000.0,032.7,025.6,10.4,0004.6,0012.55,0008.30,0007.81
2023-11-01 04:50:00,SystemResetWarning,0834.3,5.00,000.00,024.3,023.3,000.0,032.7,025.7,10.6,0005.0,0011.45,0008.12,0007.68
2023-11-01 04:51:00,SystemResetWarning,0834.4,4.99,000.00,024.2,023.3,000.0,032.7,025.7,10.7,0004.9,0011.43,0008.07,0007.62
2023-11-01 04:52:00,SystemResetWarning,0834.3,5.00,000.00,024.2,023.3,000.0,032.7,025.7,10.8,0004.5,0011.36,0008.02,0007.58
2023-11-01 04:53:00,SystemResetWarning,0834.3,5.00,000.00,024.2,023.3,000.0,032.7,025.7,10.8,0004.6,0011.24,0007.99,0007.53
2023-11-01 04:54:00,SystemResetWarning,0834.3,5.00,000.00,024.2,023.2,000.0,032.7,025.6,10.8,0004.6,0011.01,0007.85,0007.39
2023-11-01 04:55:00,SystemResetWarning,0834.3,5.00,000.00,024.2,023.2,000.0,032.7,025.6,10.8,0005.1,0010.97,0007.66,0007.23
2023-11-01 04:56:00,SystemResetWarning,0834.3,5.00,000.00,024.2,023.2,000.0,032.7,025.7,10.8,0005.6,0011.10,0007.57,0007.19
2023-11-01 04:57:00,SystemResetWarning,0834.4,5.00,000.00,024.2,023.2,000.0,032.7,025.6,10.8,0005.5,0012.25,0007.62,0007.23
2023-11-01 04:58:00,SystemResetWarning,0834.3,5.01,000.00,024.2,023.3,000.0,032.7,025.6,10.8,0005.7,0012.63,0007.81,0007.40
2023-11-01 04:59:00,SystemResetWarning,0834.3,5.00,000.00,024.2,023.3,000.0,032.7,025.6,10.8,0005.7,0012.91,0008.01,0007.55
